Location: Larch Mountain
(45.5297°N, 122.0872°W)
Time: 10:21:16
(UTC-07:00)

ISS - All Passes

Search period start: 29 March 2015 00:00
Search period end: 08 April 2015 00:00
Orbit: 396 x 406 km, 51.6° (Epoch: 29 March)

Date Brightness Start Highest point End Pass type
(mag) Time Alt. Az. Time Alt. Az. Time Alt. Az.
29 Mar - 00:05:25 10° SW 00:08:39 63° SSE 00:11:53 10° ENE night (unlit)
29 Mar - 01:42:12 10° W 01:45:13 34° NNW 01:48:14 10° NE night (unlit)
29 Mar - 03:19:20 10° NW 03:22:11 27° N 03:25:03 10° ENE visible
29 Mar - 04:55:45 10° WNW 04:58:59 67° NNE 05:02:12 10° ESE visible
29 Mar - 06:32:40 10° W 06:35:08 20° SW 06:37:32 10° S daylight
29 Mar - 23:12:20 10° SSW 23:15:20 35° SE 23:18:21 10° ENE night (unlit)
30 Mar - 00:48:33 10° W 00:51:42 45° NNW 00:54:51 10° NE night (unlit)
30 Mar - 02:25:47 10° WNW 02:28:36 26° N 02:31:26 10° ENE night (unlit)
30 Mar - 04:02:23 10° NW 04:05:31 44° NNE 04:08:38 10° E visible
30 Mar - 05:38:53 10° WNW 05:41:53 35° SW 05:44:51 10° SSE visible
30 Mar - 22:19:39 10° S 22:22:04 20° SE 22:24:33 10° E night (unlit)
30 Mar - 23:54:58 10° WSW 23:58:13 68° NNW 00:01:28 10° ENE night (unlit)
31 Mar - 01:32:08 10° WNW 01:34:59 28° N 01:37:52 10° NE night (unlit)
31 Mar - 03:08:58 10° NW 03:11:58 33° NNE 03:14:58 10° E night (unlit)
31 Mar - 04:45:19 10° WNW 04:48:32 64° SSW 04:51:44 10° SE visible
31 Mar - 21:28:00 10° SSE 21:28:50 11° SE 21:29:49 10° ESE night (unlit)
31 Mar - 23:01:31 10° SW 23:04:47 72° SSE 23:08:01 10° ENE night (unlit)
01 Apr - 00:38:23 10° WNW 00:41:23 32° NNW 00:44:22 10° NE night (unlit)
01 Apr - 02:15:28 10° NW 02:18:21 28° N 02:21:14 10° ENE night (unlit)
01 Apr - 03:51:51 10° WNW 03:55:07 75° NNE 03:58:20 10° ESE visible
01 Apr - 05:28:56 10° W 05:31:11 17° SW 05:33:24 10° S visible
01 Apr - 22:08:17 10° SSW 22:11:22 39° SE 22:14:27 10° ENE night (unlit)
01 Apr - 23:44:38 10° W 23:47:46 42° NNW 23:50:53 10° NE night (unlit)
02 Apr - 01:21:52 10° WNW 01:24:41 26° N 01:27:31 10° ENE night (unlit)
02 Apr - 02:58:24 10° NW 03:01:34 48° NNE 03:04:43 10° E night (unlit)
02 Apr - 04:34:57 10° WNW 04:37:53 31° SW 04:40:46 10° SSE visible
02 Apr - 21:15:24 10° S 21:18:00 22° SE 21:20:38 10° E visible
02 Apr - 22:50:57 10° WSW 22:54:11 62° NNW 22:57:26 10° ENE night (unlit)
03 Apr - 00:28:08 10° WNW 00:31:00 27° N 00:33:51 10° NE night (unlit)
03 Apr - 02:04:55 10° NW 02:07:57 35° NNE 02:10:59 10° E night (unlit)
03 Apr - 03:41:17 10° WNW 03:44:28 56° SW 03:47:39 10° SE night (unlit)
03 Apr - 20:23:15 10° SSE 20:24:41 12° SE 20:26:12 10° ESE visible
03 Apr - 21:57:23 10° WSW 22:00:38 81° SSE 22:03:55 10° ENE visible
03 Apr - 23:34:20 10° WNW 23:37:17 31° NNW 23:40:15 10° NE night (unlit)
04 Apr - 01:11:21 10° NW 01:14:16 29° N 01:17:10 10° ENE night (unlit)
04 Apr - 02:47:43 10° WNW 02:50:58 83° NNE 02:54:13 10° ESE night (unlit)
04 Apr - 04:24:58 10° W 04:27:01 15° SW 04:28:58 10° S night (unlit)
04 Apr - 21:04:01 10° SW 21:07:08 45° SE 21:10:17 10° ENE visible
04 Apr - 22:40:29 10° W 22:43:35 39° NNW 22:46:41 10° NE visible
05 Apr - 00:17:41 10° WNW 00:20:32 26° N 00:23:21 10° ENE night (unlit)
05 Apr - 01:54:11 10° NW 01:57:23 52° NNE 02:00:33 10° E night (unlit)
05 Apr - 03:30:48 10° W 03:33:38 27° SW 03:36:25 10° SSE night (unlit)
05 Apr - 20:10:57 10° SSW 20:13:41 25° SE 20:16:27 10° E visible
05 Apr - 21:46:41 10° WSW 21:49:55 56° NNW 21:53:08 10° ENE visible
05 Apr - 23:23:54 10° WNW 23:26:45 27° N 23:29:35 10° ENE visible
06 Apr - 01:00:37 10° NW 01:03:41 37° NNE 01:06:45 10° E night (unlit)
06 Apr - 02:37:00 10° WNW 02:40:10 49° SW 02:43:18 10° SE night (unlit)
06 Apr - 19:18:29 10° SSE 19:20:16 14° SE 19:22:08 10° E daylight
06 Apr - 20:53:01 10° WSW 20:56:16 90° S 20:59:33 10° ENE visible
06 Apr - 22:30:01 10° WNW 22:32:57 30° N 22:35:53 10° NE visible
07 Apr - 00:06:59 10° NW 00:09:55 30° N 00:12:51 10° ENE night (unlit)
07 Apr - 01:43:19 10° WNW 01:46:36 88° SSW 01:49:50 10° ESE night (unlit)
07 Apr - 03:20:50 10° WSW 03:22:34 14° SW 03:24:15 10° SSW night (unlit)
07 Apr - 19:59:30 10° SW 20:02:40 51° SE 20:05:52 10° ENE daylight
07 Apr - 21:36:05 10° W 21:39:09 37° NNW 21:42:14 10° NE visible
07 Apr - 23:13:15 10° WNW 23:16:06 27° N 23:18:57 10° ENE visible
